Location: Newark
(48.6461°N, 4.3644°W)
Time: 21:07:37
(UTC+00:00)

A-11 Canister half - Pass Details

Date: 05 February 2020
Orbit: 1517 x 1683 km, 47.2° (Epoch: 22 February)

Event Time Altitude Azimuth Distance (km) Brightness Sun altitude
Exits shadow 05:04:33 12° 204° (SSW) 3,548 10.6 -26.3°
Drops below altitude 10° 05:05:21 10° 199° (SSW) 3,678 10.7 -26.2°
Sets 05:09:56 0° 180° (S) 4,672 11.5 -25.4°
